Regional Weather Roundup
Issued by NWS

Home | Current Version | Previous Version | Text Only | Print | Product List | Glossary On
Versions: 1 2 3 4 5 6 7 8 9 10 11 12 13 14 15 16 17 18 19 20 21 22 23 24 25 26 27
000
ASUS42 KTBW 191517
RWRFL
FLORIDA REGIONAL WEATHER ROUNDUP
NATIONAL WEATHER SERVICE TAMPA BAY RUSKIN FL
1100 AM EDT THU APR 19 2018

NOTE: "FAIR" INDICATES FEW OR NO CLOUDS BELOW 12,000 FEET WITH NO
SIGNIFICANT WEATHER AND/OR OBSTRUCTIONS TO VISIBILITY.

FLZ001>010-012>015-112-114-115-191600-
PANHANDLE FLORIDA

CITY           SKY/WX    TMP DP  RH WIND       PRES   REMARKS
PENSACOLA      PTSUNNY   73  62  68 NW10      30.11R
PENSACOLA NAS  PTSUNNY   72  63  73 N6        30.11R
MILTON NAS     PTSUNNY   70  63  78 NW8       30.11R
CRESTVIEW      PTSUNNY   73  61  65 W8        30.12R
DUKE FIELD     PTSUNNY   71  62  73 NW7       30.10R
VALPARAISO     PTSUNNY   73  63  72 NW12      30.09R
MARY ESTHER    PTSUNNY   73  64  74 NW8       30.09R
TRI COUNTY     CLOUDY    72  66  81 W6        30.09S
PANAMA CITY    PTSUNNY   74  64  71 SW10G21   30.08S
TYNDALL AFB    FAIR      75  64  69 W17G23    30.11R
APALACHICOLA   FAIR      78  63  59 W16       30.10R

STATION/POSITION SKY/WX   TEMP    WIND        PRES    WAVE   SWELL
                          AIR SEA DIR/SP/G            HT/PER HT/PER
                          (F)     (DEG/KT/KT) (MB)    (FT/S) (FT/S)
30.1N   87.6W              69     300/ 12/ 14 1020.0
29.2N   88.2W                 71  270/ 12/ 14 1020.9R   2/ 6
28.8N   86.0W              74 74  280/ 12/ 14 1019.9R   2/ 3
PANAMA CITY BEAC           70 71  270/ 14/ 17 1019.7R
TOWER C                    70     270/ 10/ 10 1020.1R

$$
FLZ011-016>038-118-127-128-134-139-239-191600-
NORTH FLORIDA

CITY           SKY/WX    TMP DP  RH WIND       PRES   REMARKS
MARIANNA       CLOUDY    72  64  76 W14       30.08R
TALLAHASSEE    FAIR      77  63  61 W17       30.08S
PERRY          FAIR      78  60  54 W13       30.10R
LIVE OAK       MOSUNNY   75  64  69 S8        30.09S
CROSS CITY     FAIR      76  63  63 W13G21    30.11S
LAKE CITY      FAIR      73  61  64 W13       30.09S
GAINESVILLE    FAIR      77  62  59 W17       30.13S
WILLISTON      MOSUNNY   75  64  69 SW10      30.12S
PALATKA        FAIR      72  64  78 W9G17     30.12S
MAYPORT NAS    FAIR      75  62  64 SW10      30.06S
JACKSONVILLE   FAIR      75  63  66 W15       30.06S
JAX NAS        FAIR      74  61  63 SW14G22   30.08S
JAX CECIL      SUNNY     75  63  64 W10       30.08S
FERNANDINA BEA FAIR      76  62  60 W13       30.04S
ST AUGUSTINE   FAIR      72  62  71 SW13G20   30.10S
PALM COAST     PTSUNNY   73  63  68 W14       30.11S

STATION/POSITION SKY/WX   TEMP    WIND        PRES    WAVE   SWELL
                          AIR SEA DIR/SP/G            HT/PER HT/PER
                          (F)     (DEG/KT/KT) (MB)    (FT/S) (FT/S)
SHELL POINT      NOT AVBL
KEATON BEACH               70     230/  9/ 10 1019.8R
CEDAR KEY                  71     240/  5/  8 1020.5R
FERNANDINA                 74 67  250/  6/ 11 1018.4S
30.7N   81.3W                 66                N/A     2/ 4
MAYPORT                    71 68  250/ 12/ 15 1018.2R
31.4N   80.9W              66 65  190/ 12/ 14 1016.3R   3/ 5   2/10
ST AUGUSTINE               72 67  230/ 12/ 16 1019.6F

$$
FLZ040-043>046-052-053-057-058-063-144-191600-
INTERIOR CENTRAL FLORIDA

CITY           SKY/WX    TMP DP  RH WIND       PRES   REMARKS
OCALA          PTSUNNY   76  63  64 SW13G21   30.13S
LEESBURG       FAIR      75  65  70 W6        30.14S
SANFORD        FAIR      77  56  48 W9        30.12S
ORLANDO EXEC   FAIR      79  57  46 W13       30.12S
ORLANDO INTL   FAIR      79  58  48 W14       30.12S
KISSIMMEE      FAIR      79  59  50 W10       30.13F
WINTER HAVEN   FAIR      77  62  59 SW9       30.14S
LAKELAND       SUNNY     75  63  64 W9        30.14R
BARTOW         MOSUNNY   75  63  64 W9        30.14R
SEBRING        FAIR      79  60  52 W3        30.13F
OKEECHOBEE     FAIR      75  61  60 SW6       30.13F

$$
FLZ041-047-054-059-064-141-147-191600-
EAST CENTRAL FLORIDA

CITY           SKY/WX    TMP DP  RH WIND       PRES   REMARKS
ORMOND BEACH   MOSUNNY   73  63  68 W15G21    30.12S
DAYTONA BEACH  FAIR      76  63  64 NW12G18   30.12S
DELAND         FAIR      75  63  64 W8        30.12S
NEW SMYRNA BEA SUNNY     77  59  53 W7        30.12F
JFK SPACE CTR  FAIR      77  47  34 W10       30.11S
TITUSVILLE     SUNNY     81  46  30 NW12      30.12F
CAPE CANAVERAL FAIR      78  50  36 W9        30.11R HAZE
PATRICK AFB    FAIR      79  54  41 W9        30.12S
MELBOURNE      FAIR      79  58  48 SW9       30.11F
VERO BEACH     FAIR      79  61  53 W13       30.13F
FT PIERCE      FAIR      78  62  57 SW10      30.13S

STATION/POSITION SKY/WX   TEMP    WIND        PRES    WAVE   SWELL
                          AIR SEA DIR/SP/G            HT/PER HT/PER
                          (F)     (DEG/KT/KT) (MB)    (FT/S) (FT/S)
28.5N   80.2W              72 74  240/ 12/ 14 1020.1R   3/ 4   2/ 9
28.9N   78.5W              74 73  240/ 10/ 12 1020.2R   3/ 9   2/ 9
TRIDENT PIER               75 75  260/  7/ 10 1021.3S
28.4N   80.5W                 75                N/A     2/10
27.5N   80.2W                 75                N/A     1/ 9

$$
FLZ050-056-061-142-242-148-248-149-249-151-251-155-255-
160-260-191600-
WEST CENTRAL FLORIDA

CITY           SKY/WX    TMP DP  RH WIND       PRES   REMARKS
CRYSTAL RIVER  PTSUNNY   75  64  69 W8        30.14S
INVERNESS      FAIR      75  63  64 W6        30.14S
BROOKSVILLE    FAIR      77  62  59 W12       30.15R
CLEARWATER AIR FAIR      73  59  60 W6        30.15R
ST PETE CLEARW FAIR      77  63  61 W10       30.15R
TAMPA INTL     FAIR      77  63  61 W10       30.15R
TAMPA EXEC     FAIR      77  63  61 W7        30.15R
PLANT CITY     FAIR      79  63  57 SW9       30.16R
MACDILL AFB    FAIR      78  65  63 SW7G17    30.14R
PETER O KNIGHT CLOUDY    75  64  69 W7        30.15R
ST PETERSBURG  PTSUNNY   75  64  68 W9        30.13R
SARASOTA       FAIR      76  66  71 SW9       30.13R
VENICE         FAIR      77  66  69 W7        30.15S

STATION/POSITION SKY/WX   TEMP    WIND        PRES    WAVE   SWELL
                          AIR SEA DIR/SP/G            HT/PER HT/PER
                          (F)     (DEG/KT/KT) (MB)    (FT/S) (FT/S)
27.3N   84.2W                 74                N/A     1/ 5
CLEARWATER BEACH           72 72  250/  5/  6 1020.9R
MIDDLE TAMPA BAY           72     270/  7/ 10 1021.0R
VENICE                     74 74  240/  5/  6 1020.8R

$$
FLZ066-069-070-075>078-162-262-165-265-191600-
SOUTHWEST FLORIDA AND KEYS

CITY           SKY/WX    TMP DP  RH WIND       PRES   REMARKS
PUNTA GORDA    FAIR      79  62  56 W10       30.15S
FT MYERS       FAIR      78  62  57 VRB5      30.13R
SOUTHWEST INTL FAIR      78  63  59 SW6       30.13S
NAPLES         FAIR      79  67  66 SW7       30.13R
MARCO ISLAND   FAIR      78  65  63 CALM      30.14S
IMMOKALEE      FAIR      81  63  54 SW6       30.14S
MARATHON       PTSUNNY   82  64  54 SE5       30.11R
KEY WEST NAS   FAIR      79  62  56 VRB5      30.12R
KEY WEST INTL  FAIR      80  63  55 SE6       30.12R

STATION/POSITION SKY/WX   TEMP    WIND        PRES    WAVE   SWELL
                          AIR SEA DIR/SP/G            HT/PER HT/PER
                          (F)     (DEG/KT/KT) (MB)    (FT/S) (FT/S)
NAPLES                     79 77              1020.0R
26.0N   85.6W              76     170/  2/  4 1020.1
DRY TORTUGAS               77     110/  3/  4 1020.2R
SAND KEY                   76                 1019.8R
SOMBRERO KEY               77     140/  1/  5 1019.1R
LONG KEY                   78 76  350/  2/  2 1019.7R
MOLASSES REEF              76 78  180/  5/  6 1020.5R

$$
FLZ067-068-071>074-168-172>174-191600-
SOUTHEAST FLORIDA

CITY           SKY/WX    TMP DP  RH WIND       PRES   REMARKS
W PALM BEACH   FAIR      77  63  61 CALM      30.14S
BOCA RATON     MOSUNNY   77  63  61 W3        30.13S
FT LAUDER-EXEC FAIR      79  63  57 VRB3      30.13S
FT LAUDERDALE  PTSUNNY   77  65  66 CALM      30.12S
POMPANO BEACH  FAIR      79  64  60 SE8       30.13S
PEMBROKE PINES FAIR      79  63  57 CALM      30.14S
OPA LOCKA      MOSUNNY   79  63  57 CALM      30.13S
MIAMI          FAIR      79  63  57 S8        30.13S
WEST KENDALL   FAIR      81  62  52 VRB3      30.12S
HOMESTEAD      FAIR      79  62  56 CALM      30.12R

STATION/POSITION SKY/WX   TEMP    WIND        PRES    WAVE   SWELL
                          AIR SEA DIR/SP/G            HT/PER HT/PER
                          (F)     (DEG/KT/KT) (MB)    (FT/S) (FT/S)
PORT EVERGLADES            77     140/  4/  7 1020.4
VIRGINIA KEY               76 78  100/  2/  6 1019.6R
LAKE WORTH                 74 78  170/  5/  6 1021.4R
FOWEY ROCKS                76 77  130/  2/  3 1020.9R
SETTLEM



USA.gov is the U.S. government's official web portal to all federal, state and local government web resources and services.